Location: Cudrefin
(46.9576°N, 7.0204°E)
Time: 13:15:24
(UTC+00:00)

Daily predictions for brighter satellites

Satellite Brightness Start Highest point End
(mag) Time Altitude Azimuth Time Altitude Azimuth Time Altitude Azimuth
In-Cosmos 22 4.3 16:37:23 10° SSW 16:42:54 83° WNW 16:48:19 10° N
Cosmos 1943 3.6 16:38:54 10° NNW 16:44:18 41° NE 16:49:37 10° SE
ATLAS 2AS CENTAUR R/B 3.1 16:43:23 10° SW 16:51:21 88° SE 16:59:13 10° NE
Cosmos 1908 3.2 16:47:40 10° N 16:51:33 85° E 16:55:25 10° S
Lacrosse 5 3.0 16:49:38 10° NW 16:54:00 28° N 16:58:21 10° ENE
Cosmos 1634 Rocket 4.0 16:54:24 10° N 17:00:36 62° ENE 17:06:47 10° SSE
Okean-O 3.8 17:00:09 10° ESE 17:03:27 21° ENE 17:06:44 10° NNE
AQUARIUS 4.3 17:00:08 10° SSE 17:04:37 85° WSW 17:09:09 10° NNW
COSMO-SKYMED 1 3.3 17:03:54 10° NNE 17:07:50 32° E 17:11:44 10° SSE
Cosmos 1536 Rocket 3.7 17:04:25 10° S 17:08:47 81° W 17:13:13 10° N
Cosmos 2227 Rocket 3.7 17:04:36 10° WSW 17:09:38 32° NW 17:14:42 10° NNE
Landsat 5 3.9 17:06:02 10° N 17:10:00 60° WNW 17:13:49 10° SSW
Cosmos 1674 3.5 17:07:16 10° SSW 17:11:01 53° WNW 17:14:49 10° N
Okean O Rocket 1.7 17:07:11 10° SSE 17:11:39 83° WSW 17:16:07 10° NNW
RESURS DK-1 2.3 17:07:43 10° SSW 17:11:50 68° ESE 17:15:58 10° NNE
ERS-2 3.4 17:12:03 12° NE 17:14:26 21° E 17:17:17 10° SSE
CZ-4C R/B 4.2 17:13:13 10° N 17:16:11 38° WNW 17:19:08 10° SW
CZ-4B R/B 1.8 17:13:23 10° NNE 17:16:40 41° E 17:19:50 10° S
CZ-4C R/B 2.6 17:17:19 10° SW 17:22:18 58° NW 17:28:20 10° NE
CZ-4B R/B 3.9 17:18:33 10° S 17:23:59 61° WSW 17:29:33 10° NNW
USA 234 3.9 17:19:06 14° ENE 17:24:16 40° N 17:30:17 10° NW
Cosmos 1844 Rocket 4.1 17:21:05 10° SE 17:24:27 16° E 17:25:29 16° E
Tsikada Rocket 4.4 17:18:35 10° SSW 17:24:54 68° W 17:31:11 10° N
Cosmos 1400 Rocket 4.5 17:23:19 10° NNW 17:27:10 38° W 17:30:57 10° SSW
TIMED 4.4 17:23:36 10° NNW 17:27:59 72° ENE 17:32:21 10° SSE
CZ-2D R/B 3.3 17:24:34 10° SSE 17:28:21 55° ENE 17:32:08 10° N
Cosmos 1354 Rocket 4.0 17:24:43 10° SSW 17:30:01 79° ESE 17:35:23 10° NNE
Meteor 2-5 Rocket 3.6 17:24:31 10° S 17:30:07 80° E 17:35:41 10° NNE
Cosmos 783 Rocket 4.4 17:24:54 10° NNW 17:30:09 78° ENE 17:35:23 10° SSE
SL-14 R/B 3.2 17:26:47 10° S 17:30:38 89° E 17:34:33 10° N
Cosmos 1603 3.8 17:26:45 10° NNW 17:32:29 85° WSW 17:38:13 10° SSE
IRS-1C Rocket 4.1 17:27:48 10° SSE 17:32:57 59° ENE 17:38:07 10° N
Cosmos 2297 Rocket 4.3 17:30:54 10° W 17:34:58 20° NW 17:39:01 10° N
Cosmos 2142 Rocket 4.4 17:30:58 10° N 17:37:11 82° E 17:43:19 10° S
COSMOS 2455 3.5 17:31:54 10° S 17:37:12 33° ESE 17:40:26 20° ENE
ATLAS 3B R/B 3.3 17:32:41 10° NW 17:39:34 64° WSW 17:46:42 10° SSE
YAOGAN 1 2.8 17:39:46 10° SE 17:43:52 44° ENE 17:48:00 10° N
Cosmos 1606 Rocket 3.5 17:39:35 10° N 17:43:58 87° ENE 17:48:23 10° S
Cosmos 1892 Rocket 3.7 17:40:17 10° SSE 17:44:28 49° E 17:48:29 11° NNE
H-2A R/B 3.4 17:41:57 10° N 17:46:10 41° WNW 17:50:18 10° SW
CZ-2C R/B 3.0 17:44:11 10° SSE 17:49:22 82° ENE 17:54:55 10° NNW
Cosmos 1626 3.5 17:45:59 10° SSW 17:49:27 39° WNW 17:52:58 10° N
CSL-04 Rocket 4.1 17:44:40 10° SE 17:49:35 37° ENE 17:54:34 10° N
Cosmos 1939 Rocket 3.6 17:45:58 10° S 17:50:02 56° W 17:54:06 10° NNW
Nadezhda 4 Rocket 4.3 17:45:13 10° SSE 17:51:05 43° E 17:56:54 10° NNE
CZ-4 R/B 4.4 17:47:21 10° SSE 17:51:29 88° ENE 17:55:40 10° NNW
SKYMED 2 3.6 17:51:38 10° NNE 17:56:01 82° WNW 18:00:20 10° SSW
CZ-4 R/B 1.3 17:51:57 10° SSE 17:56:03 68° ENE 18:00:07 10° N
MOS 1 Rocket 2.9 17:53:18 10° NNE 17:57:41 77° ESE 18:01:57 10° S
ATLAS 5 CENTAUR R/B 1.6 17:54:37 10° SW 17:58:37 71° NW 18:01:05 26° NNE
BREEZE-M DEB (TANK) 4.3 17:58:30 10° W 18:01:11 24° SW 18:02:38 14° S
CREW DRAGON DEMO-1 DEB 4.0 18:00:51 10° WNW 18:03:09 30° NNW 18:03:09 30° NNW
Meteor 2-10 Rocket 3.5 17:58:59 10° N 18:04:36 75° ENE 18:09:58 10° SSE
Cosmos 2058 Rocket 3.0 18:04:08 10° N 18:08:38 79° E 18:13:09 10° SSE
Cosmos 2228 4.1 18:04:46 10° NNW 18:08:50 45° W 18:12:54 10° SSW
SJ 16-02 2.6 18:06:24 10° SSE 18:08:46 25° SE 18:08:46 25° SE
Cosmos 1315 Rocket 4.4 18:06:49 10° NNW 18:10:29 36° W 18:14:08 10° SSW
H-2A R/B 1.8 18:05:40 10° SSE 18:10:37 75° ENE 18:15:41 10° N
Cosmos 2263 Rocket 2.9 18:06:25 10° SW 18:11:59 54° WNW 18:17:04 12° NNE
SAR-Lupe-4 3.4 18:12:53 53° NNE 18:13:39 84° ESE 18:17:12 10° SSW
Okean 1-7 Rocket 3.5 18:09:24 10° S 18:13:53 67° E 18:16:14 28° NNE
EXPRESS MD2 3.9 18:07:29 10° WNW 18:15:23 85° SSW 18:16:50 44° ESE
Cosmos 1455 4.5 18:12:51 10° N 18:13:18 13° N 18:13:18 13° N
Meteor 1-24 Rocket 4.3 18:11:21 10° SSW 18:16:36 54° WNW 18:21:50 10° N
OPS 8737 4.4 18:17:03 10° NW 18:20:11 86° N 18:20:11 86° N
Cosmos 1689 Rocket 3.7 18:22:28 28° SSW 18:22:28 28° SSW 18:24:00 10° SSW
Cosmos 923 Rocket 4.3 18:17:21 10° NNW 18:22:20 45° NE 18:22:20 45° NE
SAR-Lupe-1 4.2 18:24:36 60° NNW 18:25:06 72° WNW 18:28:39 10° SSW
Cosmos 1818 4.0 18:20:37 10° S 18:25:19 40° SE 18:25:19 40° SE
Helios 1A Rocket 3.1 18:26:11 10° S 18:30:18 74° WSW 18:34:28 10° NNW
ISS -1.0 18:28:05 10° S 18:28:24 12° S 18:28:24 12° S
Meteor 2-13 Rocket 4.3 18:24:38 10° S 18:30:43 80° E 18:36:53 10° NNE
Cosmos 1680 Rocket 4.4 18:26:05 10° N 18:29:33 33° NNE 18:29:33 33° NNE
USA 267 3.4 18:29:51 42° E 18:31:30 52° SE 18:37:50 10° SSW
SJ-11-01 4.4 18:28:02 10° S 18:32:44 74° WSW 18:37:27 10° NNW
ARGOS 3.0 18:27:56 10° SSE 18:33:17 85° ENE 18:38:42 10° NNW
CSL-04 Debris 4.0 18:29:13 10° SSE 18:34:37 89° E 18:40:03 10° NNW
Cosmos 1844 4.1 18:30:34 10° S 18:35:07 44° SE 18:35:07 44° SE
Meteor 1-21 Rocket 4.0 18:31:32 10° S 18:37:00 68° E 18:38:13 52° NE
Lacrosse 5 1.9 18:32:46 10° NW 18:37:41 60° NNE 18:37:41 60° NNE
Okean-O 3.6 18:35:19 10° S 18:39:36 48° W 18:43:55 10° NNW
Cosmos 2082 Rocket 4.3 18:36:43 10° N 18:37:45 13° NNE 18:37:45 13° NNE
USA 281 4.4 18:42:04 25° NNE 18:42:04 25° NNE 18:45:56 10° N
CZ-2C R/B 2.9 18:43:09 53° SE 18:43:09 53° SE 18:47:47 10° S
ATLAS 2AS CENTAUR R/B 4.2 18:36:08 10° W 18:43:16 35° NNW 18:48:02 19° NNE
Cosmos 1833 Rocket 4.5 18:40:33 10° N 18:42:29 18° N 18:42:29 18° N
ERS-2 4.0 18:46:37 22° NNW 18:47:59 29° WNW 18:51:10 10° SW
CZ-4B R/B 4.5 18:46:34 10° NNW 18:48:31 15° WNW 18:50:26 10° W
Cosmos 158 Rocket 3.9 18:46:26 10° NNW 18:51:25 76° NNE 18:51:25 76° NNE
Cosmos 2195 Rocket 4.4 18:47:23 10° S 18:53:40 71° E 18:54:34 62° NE
USA 234 3.1 19:06:27 70° NE 19:06:44 71° NNE 19:13:16 10° NW
Cosmos 1844 Rocket 2.7 19:01:55 10° SSW 19:07:13 77° WSW 19:07:13 77° WSW
CZ-4C R/B 4.1 19:07:54 10° WNW 19:12:14 22° NNW 19:13:42 20° N
Cosmos 1092 Rocket 4.0 19:09:17 10° SSW 19:15:31 75° W 19:17:18 48° N
Iridium 4 Rocket 4.0 19:10:38 10° N 19:23:28 - S 19:15:35 61° NW
Meteor 2-8 Rocket 4.5 19:10:43 10° N 19:16:19 74° NW 19:16:19 74° NW
COSMOS 2455 3.5 19:17:04 10° SW 19:22:56 51° NW 19:23:37 49° NNW
Cosmos 2344 4.2 19:15:43 10° NW 19:24:49 70° NE 19:26:41 61° E
ATLAS 5 CENTAUR R/B 4.2 19:41:10 10° WNW 19:42:38 15° NW 19:42:38 15° NW
SJ 16-02 4.1 19:44:58 10° WSW 19:45:49 14° WSW 19:45:49 14° WSW
NOSS 3-1 (C) 4.3 19:50:46 10° NW 19:56:35 61° NW 19:56:35 61° NW
USA 267 4.4 20:17:12 37° W 20:17:12 37° W 20:21:03 10° WSW
